AKDT,Max TemperatureF,Mean TemperatureF,Min TemperatureF,Max Dew PointF,MeanDew PointF,Min DewpointF,Max Humidity, Mean Humidity, Min Humidity, Max Sea Level PressureIn, Mean Sea Level PressureIn, Min Sea Level PressureIn, Max VisibilityMiles, Mean VisibilityMiles, Min VisibilityMiles, Max Wind SpeedMPH, Mean Wind SpeedMPH, Max Gust SpeedMPH,PrecipitationIn, CloudCover, Events, WindDirDegrees
2012-9-1,51,50,50,50,48,46,100,94,82,29.91,29.90,29.89,10,4,1,17,9,,0.00,8,Rain,182
2012-9-2,53,52,51,54,51,48,100,93,88,30.12,30.10,30.06,10,7,2,6,5,,0.00,7,Rain,184
2012-9-3,53,52,51,54,53,52,100,100,100,30.16,30.15,30.13,2,1,1,9,5,,0.00,8,Rain,156
2012-9-4,59,56,53,52,48,43,94,75,63,30.28,30.24,30.17,10,9,2,5,3,,0.00,6,Rain,255
2012-9-5,51,48,44,52,49,43,100,96,93,30.31,30.29,30.23,10,6,1,9,3,,0.00,7,Rain,0
2012-9-6,60,56,51,45,45,45,76,66,55,30.35,30.33,30.28,10,10,10,12,5,,0.00,6,,265
2012-9-7,51,46,42,52,48,41,100,94,82,30.32,30.25,30.12,10,7,2,12,5,,0.00,7,Rain,176
2012-9-8,55,52,51,54,53,52,100,98,94,29.92,29.77,29.59,2,1,1,21,7,29,0.00,8,Rain,212
2012-9-9,50,49,48,48,46,45,100,90,82,29.59,29.49,29.44,10,7,5,7,4,,0.00,7,Rain,237
2012-9-10,55,50,46,52,48,46,100,90,72,29.97,29.90,29.81,10,10,10,12,4,,0.00,6,Rain,175
2012-9-11,50,48,46,50,48,45,100,99,93,30.12,30.10,30.08,10,5,2,6,5,,0.00,8,Rain,0
2012-9-12,57,56,53,55,54,54,100,95,88,30.03,29.96,29.88,7,4,1,21,17,29,0.00,8,Rain,178
2012-9-13,55,53,51,55,53,50,100,98,94,29.92,29.71,29.53,4,3,2,25,12,37,0.00,8,Rain,183
2012-9-14,55,52,50,50,48,46,94,83,72,30.24,30.19,30.10,10,10,10,12,8,,0.00,6,,194
2012-9-15,57,52,48,52,49,46,100,83,72,30.42,30.39,30.33,10,10,10,6,1,,0.00,6,,207
2012-9-16,51,46,42,50,48,43,100,93,88,30.40,30.37,30.31,10,10,10,5,2,,0.00,6,,187
2012-9-17,55,53,48,52,51,48,100,94,88,30.15,30.11,30.09,10,4,0,14,6,,0.00,7,Fog-Rain,153
2012-9-18,55,48,41,48,46,39,100,89,77,30.28,30.26,30.24,10,10,10,6,2,,0.00,2,,200
2012-9-19,53,50,46,48,47,46,100,87,77,30.30,30.28,30.25,10,10,10,6,5,,0.00,7,,271
2012-9-20,62,55,48,54,50,48,100,85,68,30.19,30.11,30.02,20,19,10,9,4,,0.00,1,,337
2012-9-21,62,56,51,54,51,48,94,84,72,30.05,30.03,30.01,10,9,0,7,3,,0.00,4,Fog,180
2012-9-22,53,52,51,50,50,48,94,91,82,30.04,30.01,29.96,10,8,7,6,2,,0.00,8,,0
2012-9-23,55,52,50,54,52,50,100,97,88,30.09,30.05,30.00,7,5,2,12,6,,0.00,7,,163
2012-9-24,55,50,46,52,49,45,100,92,82,30.24,30.20,30.15,10,8,4,6,3,,0.00,5,Fog,-1
2012-9-25,50,49,48,48,47,46,100,92,87,30.12,30.03,29.94,7,5,3,14,3,,0.00,8,Fog-Rain,173
2012-9-26,51,50,48,52,49,48,100,96,88,29.94,29.79,29.55,10,8,5,14,8,,0.00,8,Rain,98
2012-9-27,53,52,51,48,47,46,88,81,77,29.69,29.65,29.56,10,9,7,21,17,29,0.00,6,Rain,174
2012-9-28,53,52,48,50,47,46,100,89,77,29.86,29.82,29.76,10,9,7,17,14,,0.00,7,Rain,184
2012-9-29,51,48,46,48,47,46,100,94,82,30.01,29.97,29.92,10,10,7,9,4,,0.00,6,Rain,183
2012-9-30,48,46,44,46,45,43,100,90,87,30.15,30.07,29.95,10,10,7,9,3,,0.00,8,Rain,18